Wind_Speed
32 31 32 32 32 31 31 31 32 35 37 37 39 41 43 46 45 42 44 49 53 53 50 48 44 42 42 42 41 40 41 41 41 41 42 42 43 42 39 38 36 35 36 36 36 36 37 36 34 32 32 31 29 28 28 27 25 24 23 22 20 18 18 17 14 12 12 12 12 12 13 14 14 13 14 15 16 16 16 15 14 15 15 14 14
34 32 32 32 32 31 31 32 32 34 36 37 38 38 40 44 45 45 44 45 50 51 48 45 42 39 39 39 41 42 41 42 42 43 44 44 43 42 40 38 38 38 38 38 37 37 38 38 36 34 33 32 30 29 29 28 27 26 24 23 21 20 19 18 17 15 13 13 14 14 14 14 14 14 15 16 16 16 16 16 16 17 17 17 17
38 34 32 32 31 30 30 31 33 35 36 37 38 38 39 42 44 47 46 44 47 48 46 45 44 42 40 39 40 41 40 40 42 41 41 42 42 41 39 39 39 39 39 39 39 39 39 39 37 35 34 33 31 31 30 29 28 27 26 24 22 21 20 19 18 16 14 14 14 14 14 14 14 13 14 16 16 16 15 15 16 17 18 19 19
40 35 32 31 31 30 29 30 32 35 36 37 39 39 40 42 43 46 48 46 46 45 44 45 45 43 43 41 41 40 37 36 38 39 37 38 40 40 38 38 39 39 40 40 40 40 40 40 38 37 36 34 33 32 32 31 30 29 27 25 24 23 21 20 18 16 15 15 15 14 14 14 14 14 15 16 17 17 18 18 18 19 20 20 21
40 36 32 31 30 29 28 29 30 33 35 38 40 40 40 43 44 46 47 47 46 43 40 43 45 45 43 41 42 43 40 37 37 37 36 35 36 37 37 37 38 38 38 39 41 42 42 41 40 38 37 35 34 34 33 32 32 31 29 27 25 24 23 21 20 19 18 16 16 16 16 16 16 16 17 18 20 20 21 22 22 22 23 23 23
41 38 34 32 31 28 27 28 29 31 34 38 41 41 40 42 44 44 42 42 44 41 40 42 44 44 43 43 44 44 45 44 40 34 34 35 36 36 36 37 38 37 37 37 38 40 42 42 41 40 38 36 35 35 35 34 33 32 30 29 27 26 24 23 22 22 20 19 18 18 17 17 18 19 19 21 22 24 25 26 26 26 26 25 24
43 41 37 33 31 28 27 27 28 30 33 37 41 43 42 41 42 41 40 41 42 40 40 43 43 43 44 44 46 46 47 50 45 36 32 33 34 35 35 35 37 37 37 37 38 41 43 43 42 41 39 37 36 36 37 36 35 34 32 31 30 29 27 26 25 24 23 22 20 19 19 19 19 20 22 23 25 26 27 28 28 28 28 27 25
45 42 39 36 32 28 27 27 28 29 32 36 40 42 42 40 38 38 39 42 43 41 40 42 42 43 43 43 46 48 48 50 50 43 36 34 34 34 34 34 36 36 37 37 38 41 43 44 44 43 39 37 36 37 38 38 37 36 35 34 33 32 31 30 28 27 25 24 22 21 20 20 20 21 23 25 27 27 28 29 29 30 30 29 27
45 43 41 38 33 30 28 28 29 29 30 35 39 40 41 39 36 36 35 36 40 41 42 42 41 41 41 41 44 48 49 51 53 51 45 40 38 38 36 35 36 37 38 39 39 40 42 44 45 44 41 37 36 37 38 39 40 39 37 36 36 35 35 34 33 31 30 27 25 24 23 21 22 24 25 27 28 28 30 31 31 32 33 32 30
42 43 41 38 34 31 30 30 29 28 29 33 38 39 39 37 34 34 35 36 38 38 40 42 43 43 43 42 44 47 49 52 54 54 51 44 40 41 40 38 37 37 38 38 39 40 41 43 44 44 42 39 38 38 38 40 40 40 39 39 39 38 38 38 37 36 34 31 28 27 26 24 24 26 28 30 31 32 32 34 34 34 35 35 33
38 40 39 37 34 32 32 31 29 28 28 31 35 39 39 36 34 34 35 36 35 35 38 41 44 46 47 47 46 46 48 50 51 53 55 49 41 41 44 41 36 35 36 36 36 36 37 40 41 42 43 42 39 37 37 38 39 39 39 41 41 41 41 40 40 39 37 34 32 31 30 27 26 27 29 31 33 35 36 37 37 36 36 36 35
34 37 37 36 34 33 33 32 30 29 28 29 33 37 36 33 34 34 33 33 32 34 36 40 43 47 49 50 49 47 48 49 47 48 53 52 44 42 45 45 39 36 35 36 35 34 34 37 39 40 43 43 39 35 34 34 35 36 37 39 41 43 43 43 42 41 39 37 35 33 31 29 28 28 29 29 31 34 38 39 39 37 36 37 36
29 34 35 35 35 35 34 34 32 29 27 27 30 32 31 30 34 34 29 28 31 34 37 38 39 42 47 51 51 49 49 49 45 42 45 49 48 47 48 49 46 43 41 39 38 37 35 36 38 40 43 42 38 34 31 31 31 32 33 35 38 41 43 44 43 42 41 40 38 35 32 31 31 29 28 29 31 34 37 37 36 36 36 36 36
26 32 35 36 37 37 35 34 33 29 26 25 27 29 28 28 31 33 30 27 28 32 36 37 36 36 40 44 46 47 47 46 44 43 44 47 51 54 55 54 53 52 51 49 46 44 42 39 39 41 43 43 39 33 29 28 29 30 31 32 34 36 38 40 41 42 41 42 41 38 34 33 33 30 29 32 35 36 38 37 35 35 36 37 37
23 28 33 35 36 36 34 33 33 30 25 23 23 26 26 25 25 28 30 29 27 27 30 33 34 34 35 37 39 40 41 41 41 43 45 48 52 57 58 58 58 57 57 57 55 53 51 48 46 45 44 43 40 35 29 26 26 27 29 30 31 32 33 34 35 37 38 39 41 39 35 34 34 33 33 36 39 41 42 41 39 38 38 39 39
19 23 28 31 32 32 32 32 32 30 26 23 22 23 24 24 23 23 25 27 26 26 28 30 32 33 33 33 35 36 37 39 41 43 45 47 50 53 55 57 59 60 59 58 57 58 59 58 56 54 51 46 42 39 34 28 26 27 28 28 30 31 32 31 31 32 34 36 38 37 34 33 34 35 36 39 43 44 45 44 42 42 41 42 43
16 20 23 27 29 30 31 32 32 30 27 25 23 22 22 21 21 20 20 24 25 27 29 30 30 32 32 33 35 37 38 39 40 44 47 48 48 46 46 52 58 60 59 54 50 50 53 56 57 58 57 53 47 43 38 32 29 30 30 29 30 33 34 33 32 32 32 34 36 35 34 35 36 37 39 42 45 46 46 45 44 44 44 44 45
12 15 19 22 25 27 29 31 32 30 28 25 23 23 22 21 20 18 17 21 25 28 30 30 30 31 32 34 36 37 38 38 38 41 45 48 47 44 43 47 52 55 55 53 48 45 46 48 50 55 59 59 57 53 46 39 35 34 34 33 33 35 35 33 34 35 34 35 37 37 37 37 38 40 42 44 45 47 48 48 45 43 44 45 45
8 9 13 16 20 23 25 28 29 29 28 26 24 23 22 22 22 19 17 17 21 26 29 29 28 31 32 33 34 33 32 33 34 37 40 41 41 41 42 46 50 51 51 52 51 49 48 47 47 50 55 58 60 60 56 51 46 41 40 40 38 36 34 33 35 37 37 38 39 40 41 40 39 41 44 44 44 47 50 50 47 44 45 46 45
8 7 8 11 15 18 21 24 26 28 28 28 26 25 24 23 22 21 19 18 17 20 25 26 25 27 29 30 30 28 25 25 26 27 31 35 36 36 38 43 47 48 49 50 50 49 50 49 47 47 49 51 55 57 57 55 52 49 48 46 40 35 32 32 36 38 39 41 41 43 44 42 40 42 44 43 44 46 49 51 50 47 47 47 47
13 11 9 10 13 15 18 22 24 26 28 29 28 26 25 25 24 23 22 21 19 17 19 22 23 23 23 23 24 24 24 24 24 22 23 29 34 36 36 38 42 45 48 49 48 46 46 46 46 47 47 48 48 46 47 49 51 51 50 44 35 32 32 33 36 39 39 39 40 41 42 41 39 40 41 40 41 44 46 49 49 48 48 49 48
18 16 13 12 13 15 18 21 24 25 27 29 29 28 27 27 26 25 24 23 22 20 19 19 19 19 19 19 21 22 21 23 26 25 23 23 28 34 37 37 39 43 48 49 47 44 43 45 48 49 48 47 46 42 39 40 43 47 47 40 33 33 33 34 36 37 36 37 39 39 38 36 36 37 38 38 39 41 43 44 44 45 47 48 49
21 19 18 16 15 16 18 20 24 26 27 28 29 29 29 29 28 27 26 25 25 24 23 20 18 18 18 19 21 22 22 22 24 26 25 24 26 31 35 36 36 39 44 47 48 47 46 49 52 51 48 48 49 46 40 37 38 43 43 38 34 34 35 35 37 37 36 37 38 38 36 35 36 37 37 36 37 39 41 42 42 43 45 46 47
23 23 23 23 19 16 17 20 23 26 28 30 32 32 32 32 30 29 29 28 27 26 26 24 22 21 20 20 20 22 24 24 23 24 24 25 27 30 33 37 38 38 41 44 48 50 51 54 56 53 52 53 52 49 45 42 39 40 39 35 34 35 36 37 38 37 38 39 39 39 38 35 35 35 35 36 37 39 39 39 40 42 44 45 46
25 26 27 27 25 20 16 18 20 23 26 29 32 35 36 36 35 34 32 31 30 29 28 28 27 25 23 22 22 22 24 24 25 24 24 24 26 27 30 33 35 37 41 44 47 48 50 54 57 56 55 57 55 52 51 47 40 38 38 37 36 37 37 36 36 37 40 40 39 38 36 34 34 35 36 37 39 41 41 40 41 44 46 48 49
27 28 28 28 27 24 17 15 17 19 22 25 28 33 36 38 39 39 38 36 33 32 31 30 30 29 27 25 24 24 24 24 24 25 25 24 25 27 28 29 29 31 35 41 45 48 48 51 55 55 54 54 54 52 52 50 44 42 42 42 42 43 43 40 38 38 38 37 35 34 34 34 34 35 35 37 39 40 41 41 43 45 47 48 51
27 29 29 27 27 25 18 14 14 16 18 20 23 27 33 38 40 41 41 41 39 37 35 33 32 31 29 28 28 27 26 25 24 23 24 24 26 28 29 31 32 31 31 33 38 44 46 46 48 50 50 50 50 49 48 47 45 44 44 44 45 45 45 43 41 37 34 32 32 33 33 32 32 32 33 34 36 38 39 39 41 42 42 42 46
28 28 28 27 28 26 18 12 11 12 12 13 15 19 25 32 39 41 41 41 40 38 37 36 35 34 33 32 31 29 26 24 22 21 21 22 23 25 27 29 31 32 32 30 31 35 38 37 37 39 40 42 43 43 43 42 41 41 43 42 41 39 38 37 34 29 25 26 29 30 31 31 32 32 33 34 36 37 38 39 41 41 40 40 42
28 28 28 28 28 25 16 10 11 13 13 12 11 10 13 18 27 34 37 38 38 37 36 36 36 36 36 35 34 31 27 24 22 20 20 20 20 21 22 23 25 27 30 30 30 31 33 34 34 34 34 35 37 39 41 41 41 41 42 41 39 36 33 30 28 25 24 26 29 30 31 32 33 33 35 36 37 37 38 41 43 43 43 43 43
27 30 30 29 29 26 17 9 10 14 16 18 19 18 17 15 13 17 24 29 31 32 33 33 33 34 35 35 35 33 30 27 26 24 23 21 20 20 20 20 21 23 25 27 29 30 32 35 38 39 38 37 37 38 39 40 40 40 40 39 36 32 27 26 27 28 29 30 31 31 32 33 33 34 35 37 38 38 39 41 43 45 45 46 46
26 30 32 32 33 32 24 14 10 13 16 19 21 20 19 16 11 7 7 13 18 22 26 28 28 30 32 33 34 34 32 30 29 28 27 25 24 23 22 21 21 22 22 24 26 27 29 32 35 38 42 44 42 40 39 38 39 38 35 31 29 28 29 30 32 33 33 33 34 34 35 36 36 37 37 38 39 39 39 40 42 44 46 47 48
26 30 33 34 35 37 34 26 18 14 15 18 20 20 17 12 7 8 8 3 5 12 19 25 27 29 31 31 32 33 31 30 29 29 28 28 27 26 24 23 22 22 21 21 22 23 25 26 27 29 34 40 42 40 37 35 35 33 30 28 29 32 35 36 36 36 36 36 37 38 40 41 41 41 42 42 42 42 42 42 42 43 45 46 48
26 28 31 33 34 36 38 36 30 23 18 17 18 19 18 13 6 3 3 4 3 4 13 22 28 30 31 32 33 33 31 29 29 29 29 29 27 26 25 25 25 25 23 23 23 24 24 26 26 26 28 31 34 36 36 35 33 32 32 32 34 37 39 40 40 40 39 40 41 42 43 44 45 46 46 47 47 47 47 46 45 44 45 46 47
24 26 27 29 31 32 33 35 35 33 28 23 19 17 16 16 12 5 4 7 9 8 6 14 23 30 32 32 33 32 31 30 29 30 30 29 28 27 26 26 26 26 26 25 25 25 26 28 29 30 30 29 31 33 35 36 36 36 37 38 40 41 43 43 44 44 43 44 44 45 46 47 48 49 50 50 51 51 51 51 50 48 47 47 47
20 22 24 26 28 29 30 30 31 33 33 31 28 23 18 15 14 10 7 8 11 12 8 6 16 24 29 32 31 30 29 28 28 29 30 31 30 29 29 29 29 29 29 28 28 29 30 31 32 33 33 33 33 34 35 36 38 40 41 43 45 46 46 47 47 47 47 47 48 48 49 50 51 52 53 53 54 54 54 55 54 53 51 51 50
17 19 21 24 26 27 29 29 29 30 30 31 31 30 26 20 14 11 10 10 10 10 8 6 8 13 18 22 24 24 24 24 25 26 28 29 30 30 30 31 31 31 32 32 33 33 34 34 35 36 37 37 37 38 39 40 42 43 45 47 48 49 50 50 50 50 50 51 51 52 52 53 53 53 54 54 55 55 56 56 56 56 55 54 53
16 17 19 21 24 26 27 28 28 28 28 28 28 28 29 27 23 19 14 10 9 8 7 6 7 9 10 13 16 18 21 22 24 25 26 28 29 29 30 31 32 33 33 34 35 36 36 37 38 39 40 41 42 43 44 45 46 47 48 50 51 52 53 53 53 54 54 54 55 55 55 55 55 55 55 55 55 55 55 56 57 58 57 56 55
15 16 17 19 21 23 24 24 25 26 26 26 26 26 26 26 27 26 22 18 14 10 6 3 4 7 8 9 12 15 16 18 21 23 25 27 28 28 29 29 30 31 32 34 35 36 37 38 38 39 41 43 44 45 46 48 49 50 51 52 53 54 55 56 56 57 57 57 57 57 57 57 57 56 56 56 56 56 56 56 58 58 57 57 56
14 15 16 17 19 20 21 22 22 23 24 25 26 26 25 25 25 25 25 24 22 19 16 13 8 5 4 4 2 1 4 8 13 16 18 20 22 23 25 25 26 27 28 29 31 32 34 36 37 38 39 41 43 45 47 48 49 50 51 52 53 54 54 55 56 56 57 57 57 58 58 58 57 57 57 57 57 57 57 57 57 57 57 57 56
13 13 14 16 17 18 19 20 21 21 23 23 24 24 24 24 24 24 24 23 23 22 22 21 20 19 18 18 16 13 9 6 5 6 7 9 12 14 16 18 20 21 22 23 24 25 27 29 31 33 35 36 38 40 42 44 45 47 48 49 49 50 50 50 51 52 53 53 54 54 54 55 55 55 55 55 55 55 55 55 55 55 55 54 54
12 13 14 15 15 16 18 19 20 21 21 22 23 23 23 23 23 23 23 22 22 21 21 21 22 22 21 20 19 17 16 14 14 13 11 10 10 9 10 11 12 12 13 14 15 16 18 20 22 24 26 28 30 32 34 36 38 40 42 43 44 45 45 45 45 46 46 46 47 48 48 49 49 50 51 51 51 51 52 53 53 53 52 51 51
11 12 13 14 15 16 17 18 19 20 21 21 21 22 22 22 22 22 22 21 21 21 20 21 21 20 20 20 19 18 17 16 15 14 13 12 12 11 10 9 9 8 7 7 7 8 9 10 11 12 14 15 17 20 22 24 26 29 31 33 34 36 37 37 38 38 39 39 40 41 41 42 43 44 45 46 46 46 47 48 48 49 49 49 52
10 11 12 13 14 16 16 17 18 19 19 20 20 20 21 21 21 21 21 21 20 20 20 20 20 20 19 19 19 18 17 16 15 15 14 13 12 12 11 10 9 9 8 8 7 7 7 7 7 7 8 8 9 10 11 12 14 15 17 18 20 21 23 24 25 26 27 28 29 30 31 32 34 34 36 36 36 36 36 38 41 44 46 48 49
9 10 12 12 13 14 15 15 16 17 17 18 19 19 19 19 20 20 20 19 19 19 19 19 19 19 19 18 18 17 17 17 17 16 15 15 14 13 12 12 11 10 10 9 9 9 9 9 9 9 9 9 9 9 9 9 10 10 11 12 13 13 14 14 15 16 16 17 18 19 20 22 23 24 25 26 27 27 27 29 33 37 39 39 39
8 9 10 11 12 13 13 14 14 15 15 16 16 17 17 18 18 19 19 18 18 18 18 18 18 17 17 17 17 17 17 17 17 17 16 16 15 15 14 14 13 12 12 11 10 10 10 10 10 11 11 12 12 12 12 11 11 11 12 12 13 13 14 14 15 15 15 15 15 15 15 16 17 18 18 19 20 20 20 21 23 25 26 25 26
7 8 9 10 11 11 12 13 13 13 14 14 14 15 15 16 17 17 17 18 18 18 17 17 17 17 16 16 16 16 16 17 17 16 16 16 15 15 15 14 14 13 13 12 12 11 11 11 11 12 12 13 14 14 14 14 14 14 14 15 15 15 16 16 16 17 17 18 17 16 15 15 15 15 16 16 16 16 16 17 18 19 19 19 18
6 7 8 9 10 11 11 11 12 12 13 13 13 13 14 14 15 16 16 16 17 16 17 16 16 16 16 16 16 16 16 16 16 16 16 16 15 15 15 14 14 14 13 13 13 13 12 12 12 12 13 14 15 15 16 17 17 17 17 18 18 19 19 19 19 19 19 19 20 19 18 16 15 14 15 15 14 14 14 15 16 16 16 16 16
5 7 8 9 9 10 11 11 11 11 11 12 12 12 13 13 14 15 15 15 16 16 16 16 16 16 16 16 16 16 16 16 16 16 16 16 16 15 15 15 14 14 14 14 14 14 14 14 14 14 14 15 15 16 17 17 18 19 19 20 20 21 21 21 21 21 21 22 22 22 21 19 18 17 16 16 16 15 15 15 14 14 14 14 14
5 6 8 9 9 10 10 10 11 11 11 11 11 11 12 12 13 14 14 15 15 15 15 15 15 15 15 15 15 15 15 15 16 16 16 16 16 16 16 16 15 15 15 15 15 15 15 15 16 16 16 16 17 17 18 18 18 19 20 20 21 21 21 22 22 23 23 24 24 24 24 23 22 21 20 19 19 18 17 16 15 14 13 13 14
5 6 8 9 10 10 10 10 10 11 11 11 11 11 12 12 13 13 14 14 14 14 14 14 14 14 15 15 15 15 15 16 16 15 16 16 16 16 16 16 16 16 16 16 16 16 16 16 17 17 17 17 18 18 19 19 19 20 20 20 21 21 21 21 22 22 23 23 24 24 24 24 24 23 23 22 21 20 19 18 18 17 16 15 14
6 7 8 9 10 11 10 10 10 10 11 11 11 12 12 12 12 13 13 13 13 13 13 13 14 14 15 15 15 15 16 16 16 16 16 16 16 16 16 16 16 16 17 17 17 18 18 18 18 18 18 18 19 19 19 19 20 20 21 21 21 22 22 22 22 22 22 22 23 23 24 24 23 23 23 23 22 21 21 20 19 19 18 17 16
Wind_Direction
256 258 258 260 261 258 252 248 247 247 249 252 248 238 235 239 240 238 239 243 246 243 240 239 238 236 235 233 233 236 240 245 247 242 239 238 239 238 235 233 232 231 231 232 233 235 237 237 235 233 234 235 236 239 240 240 240 238 236 235 234 234 238 244 249 246 243 248 252 255 260 266 271 275 279 284 288 293 298 303 306 307 307 309 306
251 253 254 258 260 259 255 248 244 244 247 251 253 246 238 237 240 241 239 240 245 244 240 238 238 239 242 240 234 232 235 241 245 243 240 239 239 239 236 234 234 233 232 232 233 234 237 238 236 233 233 233 234 236 237 237 238 237 235 233 232 232 234 238 244 245 243 246 253 257 260 264 270 276 280 283 287 292 299 303 307 310 311 314 316
248 249 251 254 257 257 256 250 243 241 242 246 252 253 245 239 239 243 244 242 242 244 243 240 237 238 243 245 241 234 230 235 243 244 241 240 240 239 237 236 236 235 233 232 233 233 235 237 237 235 233 232 233 235 236 235 236 236 235 233 231 231 232 233 236 240 241 241 247 252 255 259 264 267 271 276 281 287 293 297 301 304 308 312 315
245 247 249 251 254 255 255 252 246 242 241 242 246 249 249 245 241 242 247 247 242 240 242 243 241 237 237 241 245 244 235 232 240 244 240 238 238 237 236 237 237 237 236 234 234 234 235 236 237 237 235 233 232 234 235 235 235 235 235 233 231 230 230 230 231 235 238 239 242 248 253 260 266 269 271 277 283 287 291 294 296 298 303 308 310
243 245 247 249 251 253 254 254 251 245 242 242 244 246 248 249 246 242 244 249 247 240 238 241 242 239 238 239 243 248 246 237 234 239 239 236 235 235 237 239 239 238 238 237 236 235 235 236 236 237 236 234 233 233 234 234 235 235 235 233 231 229 228 228 229 233 237 240 243 247 254 261 269 275 278 282 287 290 292 294 296 298 300 303 304
240 241 243 246 249 253 255 255 255 251 245 243 244 245 245 248 251 247 244 250 253 248 240 239 241 241 241 242 242 244 247 242 231 229 235 235 231 231 235 237 236 235 237 239 240 240 239 237 236 236 236 235 234 234 235 235 235 235 235 235 234 232 230 228 228 232 236 240 244 248 254 261 269 276 281 285 289 291 294 296 298 299 300 299 300
236 238 240 244 248 253 257 259 259 255 249 245 244 245 245 246 252 253 248 247 252 253 247 241 240 241 241 244 243 241 243 243 235 225 226 230 229 228 231 233 230 229 232 236 240 243 243 241 239 238 237 235 234 236 237 237 236 235 235 237 238 238 237 234 232 234 237 241 246 251 257 264 272 279 286 290 293 296 299 300 300 301 302 302 302
233 235 239 243 247 252 257 262 263 259 253 247 245 248 248 245 249 253 251 246 246 249 251 245 240 240 241 243 244 240 239 240 237 231 227 229 232 232 230 229 227 225 227 230 234 239 243 243 243 243 240 236 235 236 238 239 238 236 236 238 240 241 243 243 242 241 242 244 247 252 259 267 274 281 287 292 296 301 305 304 304 304 304 303 303
233 235 238 242 247 252 257 262 266 266 261 252 247 250 250 246 247 251 251 248 245 244 246 244 238 236 238 241 242 239 237 234 234 234 231 230 236 240 234 228 226 224 225 227 229 234 238 241 243 245 243 241 238 237 239 240 241 240 238 238 240 242 244 247 249 248 248 249 251 256 261 266 272 278 284 289 293 298 304 306 306 306 304 302 301
233 235 238 242 246 251 256 262 266 270 269 259 251 251 252 249 249 252 251 250 248 246 244 241 236 234 236 239 240 239 236 233 232 233 232 231 236 242 237 228 223 223 224 226 228 232 236 239 242 244 244 243 242 240 239 241 242 243 242 241 241 242 244 247 249 251 252 254 256 261 264 265 269 275 280 285 288 290 295 301 305 306 304 302 302
234 236 239 242 245 249 254 258 263 268 272 266 256 254 253 249 247 251 254 252 247 243 241 237 233 233 234 236 238 240 239 237 235 233 233 233 235 237 235 229 224 224 224 224 227 231 234 237 240 241 240 241 242 241 240 241 242 243 243 243 243 243 245 247 249 251 254 256 259 262 265 267 270 275 279 283 287 289 290 293 297 302 302 302 302
234 236 239 241 242 246 251 255 259 265 271 273 266 261 257 252 249 250 253 251 243 237 235 234 234 236 236 236 238 240 242 244 245 239 235 235 234 233 233 232 231 231 230 227 227 228 230 233 236 237 236 235 238 240 241 241 242 243 244 245 245 245 246 248 250 253 256 258 260 262 264 267 269 274 280 286 290 293 293 291 293 296 298 300 302
232 234 237 239 240 243 248 252 257 263 271 276 275 271 264 257 254 253 251 248 241 234 231 233 238 242 242 241 240 241 242 248 253 248 238 234 233 233 235 236 238 240 240 237 233 231 232 233 233 235 234 232 234 238 240 241 243 244 245 246 247 247 246 247 250 253 257 259 260 262 264 266 268 271 277 285 289 292 293 291 291 293 295 297 300
236 233 234 236 239 242 245 250 254 261 270 274 277 276 271 263 257 254 252 249 243 237 233 235 240 245 247 245 244 243 243 248 255 254 247 239 233 232 234 237 241 245 246 245 243 240 240 239 238 237 234 232 234 237 240 241 243 245 247 248 249 249 249 249 250 253 256 258 261 263 264 265 265 266 273 281 285 287 289 288 287 288 291 293 296
247 240 238 238 240 242 245 248 252 259 267 270 274 277 275 273 266 254 246 245 246 242 237 238 241 244 246 247 246 245 246 250 253 254 254 249 239 233 233 236 240 244 246 248 249 248 248 248 247 245 241 240 240 240 239 241 244 246 249 251 252 252 252 252 253 255 256 258 260 263 262 260 259 261 268 277 282 284 286 285 283 284 286 289 291
262 251 246 243 243 244 245 246 250 256 263 266 269 273 276 279 277 263 246 241 244 242 238 239 242 243 243 245 248 250 251 253 254 255 258 258 248 236 232 233 236 239 240 241 244 248 251 252 252 250 249 248 246 245 243 243 245 246 249 254 257 258 257 256 257 257 257 257 259 260 258 256 256 259 267 275 280 281 283 283 282 281 283 286 288
275 263 255 250 247 245 243 244 248 254 261 264 263 265 271 278 283 277 254 242 243 242 237 235 236 238 239 240 244 249 251 254 256 255 257 259 255 246 237 233 234 236 237 236 236 239 244 248 251 252 251 250 250 250 247 246 250 252 252 256 260 261 260 259 258 258 258 258 259 258 257 257 259 263 270 275 278 279 279 279 280 280 281 283 285
296 277 266 258 254 249 245 244 247 251 258 264 264 262 264 271 280 284 266 248 247 248 244 239 233 232 235 237 239 244 249 256 261 260 259 258 254 253 253 246 242 243 244 244 242 241 240 241 242 246 248 248 249 251 252 252 255 256 255 258 261 262 261 260 260 260 260 260 260 259 259 261 265 268 271 272 274 275 275 276 278 279 279 280 283
340 304 282 271 264 258 252 248 249 251 256 261 265 263 263 265 272 279 277 264 256 252 251 249 239 230 230 235 239 243 248 255 259 262 265 259 248 248 255 253 250 251 251 250 250 249 248 248 244 243 246 246 244 245 249 254 258 257 254 255 257 259 260 261 261 261 260 258 258 258 260 263 267 268 268 267 267 269 271 274 276 276 276 278 281
358 337 307 288 276 267 260 255 253 253 255 259 262 263 262 261 263 268 271 271 266 256 254 255 248 235 228 229 235 239 242 246 249 254 261 259 250 249 253 252 252 253 252 251 252 251 252 255 253 250 252 254 250 243 240 248 258 258 253 252 256 259 260 259 258 258 257 254 254 255 256 258 261 263 265 266 267 268 270 272 273 274 274 277 279
357 351 330 305 287 275 267 261 257 256 257 259 262 263 261 260 259 260 262 265 267 262 257 257 254 247 236 230 230 231 234 240 243 242 248 254 254 255 256 256 256 253 249 248 251 251 251 254 255 254 256 262 262 252 240 246 256 256 251 252 256 259 258 256 254 254 255 255 256 257 257 256 258 262 266 268 269 270 270 271 273 275 276 277 278
356 351 337 318 299 285 276 269 264 262 261 261 262 262 262 260 258 257 256 259 261 263 262 259 255 251 246 235 227 226 228 235 240 238 239 245 249 251 252 254 255 253 249 248 249 248 248 250 252 254 256 260 265 264 254 249 250 251 252 254 254 252 253 253 253 254 255 257 260 261 260 259 261 264 267 270 272 272 272 273 275 277 278 278 277
356 353 347 336 316 295 285 279 274 270 267 265 265 263 263 262 260 258 256 255 255 257 260 262 258 255 251 239 227 224 223 224 229 232 234 237 241 245 247 248 249 250 251 252 250 247 248 251 253 255 256 256 258 259 254 247 244 247 253 255 251 250 251 251 253 255 256 258 260 262 263 264 266 269 272 276 278 277 277 278 278 278 279 279 278
353 352 352 349 338 314 292 283 280 277 275 273 270 268 265 263 261 260 258 256 254 254 255 256 255 255 254 249 240 234 230 225 223 224 226 229 234 240 245 247 247 247 248 250 248 245 245 249 253 256 256 256 256 254 251 250 247 244 246 248 247 249 251 251 253 254 254 257 260 262 264 267 270 275 279 281 282 281 281 281 281 281 281 281 280
348 346 348 349 347 334 305 282 276 275 274 274 273 272 270 267 263 261 258 256 255 254 254 254 254 253 254 254 254 250 241 233 227 225 227 229 231 235 239 243 247 250 250 249 246 244 245 247 250 253 254 256 257 256 253 251 245 239 240 243 245 247 250 253 256 258 257 258 259 261 266 270 272 276 279 281 281 282 283 283 283 283 283 282 282
348 347 348 347 347 345 327 295 281 274 269 269 269 268 268 267 265 263 260 258 257 255 253 253 253 254 254 254 256 256 251 245 237 231 232 236 236 236 238 241 248 255 257 252 247 245 246 248 250 253 256 256 255 254 252 247 240 236 238 240 243 246 249 252 257 259 258 258 260 264 268 272 273 274 275 277 278 279 280 281 281 281 283 283 285
355 355 354 351 349 350 343 318 300 290 280 276 272 267 265 263 263 262 260 258 258 257 254 252 251 251 251 251 251 250 249 250 247 240 236 238 240 241 243 245 249 255 258 258 254 248 248 252 254 257 259 258 254 252 252 248 243 241 242 242 243 245 247 248 252 252 251 255 262 265 268 270 271 273 274 275 276 277 279 280 280 281 282 282 282
2 2 2 360 356 353 350 338 330 324 310 298 285 274 268 263 260 258 258 256 254 253 252 250 249 250 250 250 251 251 250 251 252 248 244 244 244 245 247 248 250 252 253 255 255 251 252 259 263 263 263 262 257 252 252 252 250 251 253 253 251 251 252 253 256 257 257 260 262 264 266 269 270 273 275 275 276 278 280 281 282 284 285 284 283
7 8 9 9 6 2 354 343 348 354 354 352 341 318 300 281 263 255 253 251 248 245 245 245 244 245 247 249 250 251 251 252 253 254 254 252 248 244 243 244 246 249 251 252 253 254 257 262 265 263 262 262 259 255 253 254 255 257 261 263 261 261 263 266 270 273 271 266 264 266 269 272 274 276 279 279 280 281 282 282 282 284 286 286 287
10 12 13 14 15 15 8 347 352 7 11 13 12 7 359 343 302 262 249 245 242 237 234 233 235 237 239 243 245 245 244 245 247 252 256 255 252 249 248 248 246 247 250 251 252 253 256 258 259 259 256 255 257 258 258 259 258 259 261 262 261 262 266 270 271 272 270 269 270 272 275 278 280 281 283 283 283 283 283 283 283 283 284 285 286
14 13 15 16 20 24 23 14 4 10 17 21 20 16 11 6 358 342 291 253 243 235 224 219 224 231 232 234 238 239 240 242 245 249 252 253 254 255 257 256 253 250 249 250 251 253 255 258 261 261 256 251 251 255 259 261 260 260 261 264 267 272 276 275 273 271 271 270 271 274 277 279 280 281 282 283 284 284 285 286 285 285 284 284 285
19 16 16 17 21 25 29 29 22 12 15 24 26 23 18 11 2 8 15 359 249 237 222 212 216 225 228 228 232 235 237 239 242 245 247 249 252 254 254 254 254 253 251 251 255 259 263 266 269 268 260 252 249 251 256 259 261 264 268 271 274 276 276 276 275 274 274 273 274 275 277 278 279 279 280 281 282 283 284 285 286 286 285 285 284
23 20 18 19 21 24 28 31 30 25 20 21 25 27 25 19 1 332 1 31 22 252 225 215 218 224 226 226 229 233 233 233 235 238 240 244 247 250 251 252 254 255 255 254 255 257 261 265 267 268 265 259 255 255 257 259 264 270 274 273 272 272 273 275 276 277 277 277 277 278 278 279 280 281 282 282 283 284 284 284 286 287 286 286 285
20 18 16 18 20 22 25 29 31 32 32 30 27 27 29 30 29 11 313 328 342 332 266 214 214 223 228 227 227 229 230 229 230 232 234 237 240 243 246 249 251 253 255 255 255 255 258 261 263 265 267 267 265 263 262 263 266 270 272 271 271 271 273 274 276 278 278 279 279 280 281 281 282 283 284 285 285 286 286 287 287 287 287 286 284
7 9 10 15 17 18 21 24 27 30 33 35 35 34 34 35 36 33 16 353 342 336 324 218 203 215 225 227 228 231 233 232 232 233 235 239 241 243 245 247 250 253 255 255 255 256 258 260 262 264 267 268 269 268 267 266 266 267 268 269 269 271 272 274 275 277 278 278 279 280 281 282 283 284 285 286 286 287 288 288 287 287 286 285 284
356 2 8 13 15 17 20 22 25 27 28 32 37 38 38 38 38 35 31 20 1 344 326 279 233 227 230 229 230 234 239 241 241 241 241 243 246 247 248 249 251 254 256 257 258 259 259 261 263 265 267 268 269 269 269 268 268 268 268 269 270 272 273 275 276 277 278 279 279 280 281 282 282 283 283 284 285 286 287 287 287 287 286 285 284
360 7 11 12 13 16 19 22 27 30 30 31 36 39 41 42 44 43 40 31 14 2 343 307 284 268 251 239 237 240 244 248 251 251 250 250 251 252 253 254 254 256 257 259 261 262 262 263 264 266 267 269 269 270 271 271 271 272 272 272 273 274 275 276 277 277 278 279 279 280 280 281 281 281 282 282 283 283 283 283 283 284 284 283 282
6 12 12 10 12 15 18 22 28 33 35 37 39 42 43 45 47 49 51 52 49 47 44 14 293 272 264 257 252 251 252 255 257 256 255 255 255 257 258 260 260 259 260 260 262 263 264 265 265 265 266 268 270 271 272 272 273 274 274 274 275 275 276 277 277 278 278 279 279 280 280 280 280 280 280 281 281 281 280 280 280 280 280 280 279
4 9 9 9 12 16 20 24 30 35 38 41 44 46 47 48 50 51 53 55 57 61 65 69 75 80 73 65 53 309 276 273 271 268 264 262 262 263 265 267 267 267 266 264 263 263 264 264 265 265 265 265 267 268 270 271 272 273 274 275 275 276 276 276 277 277 278 278 278 279 279 279 279 280 280 279 279 279 278 278 277 277 277 276 276
6 13 15 15 17 20 24 27 32 36 39 42 44 46 48 50 51 53 55 56 56 57 58 61 67 72 75 75 73 69 62 46 10 344 323 309 300 292 288 287 285 284 283 280 278 275 273 272 271 271 270 270 270 270 271 272 273 274 275 276 277 278 279 279 279 279 280 280 280 280 280 280 280 280 280 280 280 279 279 278 277 277 277 277 276
14 21 23 23 24 27 29 31 34 38 41 42 43 44 46 48 50 52 53 54 55 54 52 52 54 57 59 62 62 58 55 55 54 49 39 26 12 357 341 330 320 313 307 302 297 294 291 288 286 284 282 282 281 280 279 279 279 279 279 280 281 282 283 284 284 284 284 284 284 284 284 284 283 283 283 282 281 280 280 280 280 279 278 276 274
18 26 29 30 31 32 34 35 37 40 43 44 45 46 46 46 48 49 50 49 50 48 47 46 47 47 46 47 48 45 43 44 46 46 44 44 43 40 34 29 21 12 1 350 338 327 317 310 305 301 298 295 292 290 289 288 287 286 285 284 284 284 284 285 285 284 284 283 283 282 282 282 282 282 281 280 278 277 276 275 275 275 274 273 275
27 34 36 36 36 36 37 37 38 40 42 43 45 46 46 46 45 45 46 46 45 44 42 42 42 42 42 41 41 38 36 36 37 36 35 34 33 32 32 30 28 24 20 13 6 359 350 343 336 329 322 316 310 305 302 301 299 298 296 294 292 290 288 287 286 285 284 283 282 281 281 280 279 279 279 278 277 277 276 275 274 273 273 273 274
37 40 37 35 35 34 33 34 35 35 37 39 40 41 42 42 42 42 41 41 41 40 40 39 39 38 37 37 37 35 34 34 34 32 30 28 26 23 20 17 14 13 9 3 358 353 346 340 336 330 323 319 316 312 309 309 311 312 312 309 307 306 305 304 303 302 300 298 294 291 289 287 285 284 283 282 283 284 285 283 279 275 273 272 271
35 35 32 29 29 28 27 28 29 30 31 32 33 34 34 35 35 36 36 35 35 34 34 34 34 34 34 33 33 32 31 31 32 31 30 28 26 23 20 17 14 10 6 1 355 349 342 334 329 324 319 315 312 309 306 303 302 303 304 305 305 306 307 307 308 309 312 314 313 309 305 303 301 298 295 292 290 290 292 293 290 285 281 278 276
29 28 25 23 23 23 22 22 23 24 25 27 27 28 28 28 28 28 27 27 28 28 27 27 27 27 27 27 27 26 26 26 26 25 24 23 22 20 18 16 13 9 6 2 356 350 343 335 328 322 317 312 309 307 304 300 297 294 293 294 296 298 300 301 303 304 306 309 312 313 314 316 317 315 312 307 304 302 303 304 303 299 295 291 289
19 17 16 15 15 15 15 17 18 18 19 20 21 21 21 21 21 21 21 20 21 21 21 22 21 20 20 20 19 19 20 19 19 19 17 16 15 13 11 9 6 3 359 356 352 347 343 337 331 325 320 315 311 309 306 304 301 298 295 293 292 293 295 297 300 302 302 304 307 311 313 315 318 319 320 319 319 318 317 316 315 314 310 305 300
1 3 5 4 5 6 7 9 11 12 13 14 14 15 15 14 14 14 14 15 16 16 16 18 18 17 17 16 15 15 14 13 12 12 10 8 7 4 2 360 358 355 351 348 344 341 337 334 330 326 322 318 315 312 309 308 306 304 302 300 298 296 295 296 297 299 300 302 304 307 309 311 312 312 312 313 315 318 320 321 323 325 326 325 321
335 343 349 352 355 356 357 359 1 3 6 8 7 8 8 8 8 8 8 8 10 11 12 13 13 13 12 12 11 10 9 8 6 5 3 360 357 355 353 351 349 346 344 341 339 335 332 329 326 323 320 317 315 313 311 310 309 308 308 307 305 304 301 299 298 297 298 300 302 303 304 306 307 307 306 306 307 310 313 316 319 322 327 333 337
309 324 333 339 343 344 346 350 352 354 356 358 359 360 360 360 360 1 2 2 3 5 6 7 7 6 6 6 5 3 2 1 359 357 355 353 350 348 346 344 342 341 339 337 335 333 331 328 325 323 320 317 315 313 311 309 308 307 307 307 307 307 307 305 304 301 300 300 300 300 300 301 301 302 303 304 305 306 307 310 313 316 319 322 328
288 305 317 324 330 334 335 338 341 344 346 349 349 350 351 351 352 353 354 354 356 358 359 360 360 359 359 358 358 357 356 354 353 352 350 349 347 345 343 341 339 337 336 334 333 331 329 327 326 323 321 319 317 315 313 311 310 308 306 305 305 305 305 305 305 305 304 303 301 300 299 299 298 298 298 299 301 302 303 305 308 311 314 316 318
Height
3028 3029 3031 3033 3034 3037 3038 3039 3041 3042 3043 3044 3045 3048 3051 3052 3053 3055 3058 3060 3061 3063 3065 3065 3067 3069 3070 3070 3072 3074 3077 3079 3081 3083 3084 3085 3087 3089 3091 3093 3096 3099 3102 3105 3108 3110 3113 3115 3117 3119 3121 3123 3124 3125 3126 3127 3128 3128 3128 3128 3128 3128 3129 3129 3129 3130 3132 3132 3133 3133 3134 3134 3134 3134 3135 3135 3135 3134 3134 3134 3134 3134 3134 3134 3134
3022 3023 3025 3027 3029 3031 3033 3034 3036 3038 3039 3040 3040 3042 3045 3046 3047 3048 3049 3053 3056 3058 3061 3063 3064 3066 3067 3068 3069 3070 3071 3074 3077 3078 3079 3081 3084 3087 3089 3090 3092 3095 3097 3100 3103 3105 3108 3110 3113 3115 3117 3119 3121 3122 3123 3124 3125 3125 3126 3126 3126 3126 3126 3127 3127 3127 3128 3129 3130 3130 3131 3131 3132 3132 3132 3132 3132 3132 3132 3132 3131 3131 3131 3130 3130
3016 3018 3020 3022 3024 3026 3027 3029 3031 3033 3035 3036 3036 3037 3037 3039 3043 3042 3041 3045 3051 3054 3057 3058 3058 3060 3063 3064 3066 3066 3066 3069 3072 3074 3076 3079 3081 3084 3086 3087 3089 3091 3093 3096 3098 3100 3103 3105 3108 3111 3113 3115 3117 3118 3119 3120 3121 3122 3123 3123 3123 3123 3124 3124 3124 3125 3125 3126 3127 3127 3128 3129 3129 3130 3130 3130 3130 3130 3130 3130 3129 3129 3129 3128 3127
3011 3014 3016 3017 3019 3021 3022 3024 3025 3027 3030 3031 3031 3032 3031 3032 3037 3039 3036 3039 3046 3049 3051 3052 3052 3052 3056 3059 3061 3063 3063 3065 3068 3070 3072 3074 3077 3079 3081 3083 3085 3087 3090 3092 3094 3096 3098 3101 3104 3107 3109 3111 3113 3115 3116 3117 3118 3119 3119 3120 3120 3121 3121 3121 3122 3122 3122 3123 3124 3124 3125 3125 3126 3127 3127 3127 3127 3127 3127 3127 3127 3127 3126 3126 3125
3007 3010 3012 3013 3014 3015 3017 3019 3020 3022 3024 3025 3025 3027 3027 3027 3031 3035 3035 3035 3039 3043 3045 3047 3048 3047 3050 3055 3058 3060 3062 3063 3064 3066 3068 3071 3073 3075 3077 3079 3081 3084 3087 3089 3091 3092 3094 3097 3100 3102 3105 3107 3110 3111 3113 3114 3115 3116 3116 3117 3117 3118 3118 3118 3119 3119 3119 3120 3120 3121 3122 3122 3123 3124 3124 3124 3124 3125 3125 3124 3124 3124 3124 3123 3123
3002 3005 3007 3008 3010 3011 3013 3014 3015 3017 3018 3019 3019 3021 3023 3023 3025 3029 3033 3033 3034 3038 3041 3043 3045 3046 3048 3052 3054 3056 3059 3059 3059 3061 3064 3067 3070 3072 3073 3075 3077 3080 3083 3085 3088 3089 3091 3093 3095 3098 3100 3103 3106 3108 3109 3111 3112 3113 3114 3114 3115 3115 3115 3115 3115 3116 3116 3116 3117 3117 3118 3119 3119 3120 3121 3121 3121 3121 3121 3121 3121 3121 3121 3120 3120
2996 2999 3002 3004 3006 3007 3009 3010 3010 3011 3012 3013 3013 3015 3017 3020 3021 3023 3028 3030 3030 3034 3036 3037 3039 3042 3045 3047 3048 3049 3052 3054 3056 3057 3059 3062 3066 3068 3070 3072 3074 3077 3079 3082 3084 3086 3089 3091 3092 3094 3096 3099 3102 3104 3105 3107 3108 3110 3111 3111 3112 3112 3111 3111 3112 3112 3112 3113 3113 3114 3114 3115 3116 3116 3117 3117 3117 3118 3118 3117 3117 3117 3116 3116 3116
2990 2994 2997 2999 3002 3003 3005 3005 3006 3007 3008 3008 3009 3010 3012 3016 3019 3019 3022 3026 3026 3028 3031 3032 3033 3036 3039 3041 3041 3041 3043 3046 3050 3053 3054 3058 3062 3064 3067 3069 3071 3073 3076 3078 3081 3084 3087 3089 3090 3091 3093 3095 3097 3099 3101 3103 3105 3106 3107 3108 3108 3108 3108 3108 3108 3108 3108 3109 3109 3110 3110 3111 3111 3112 3113 3113 3113 3113 3113 3112 3112 3112 3112 3111 3111
2985 2990 2993 2995 2998 3000 3001 3001 3002 3004 3004 3003 3004 3005 3006 3011 3015 3016 3017 3020 3022 3023 3026 3028 3029 3030 3033 3035 3034 3034 3036 3038 3043 3047 3050 3054 3057 3061 3064 3066 3067 3069 3072 3075 3077 3080 3083 3085 3087 3088 3090 3092 3094 3095 3097 3099 3100 3102 3104 3104 3104 3105 3105 3105 3105 3104 3104 3105 3105 3106 3106 3106 3107 3107 3108 3108 3109 3109 3108 3107 3107 3107 3107 3106 3107
2981 2985 2988 2991 2994 2996 2997 2998 2999 3000 3000 2999 2999 3000 3001 3005 3009 3011 3012 3014 3016 3019 3021 3024 3026 3026 3027 3028 3028 3027 3029 3032 3036 3041 3046 3049 3054 3058 3061 3063 3064 3065 3068 3070 3073 3075 3078 3080 3083 3085 3087 3088 3089 3090 3092 3094 3096 3098 3100 3100 3100 3101 3101 3101 3101 3101 3101 3101 3102 3102 3102 3102 3103 3103 3104 3104 3104 3104 3104 3103 3103 3103 3102 3101 3102
2978 2982 2985 2988 2990 2992 2993 2994 2996 2996 2996 2995 2995 2994 2997 3000 3003 3006 3007 3008 3010 3014 3016 3018 3020 3020 3020 3021 3022 3024 3026 3028 3032 3036 3040 3045 3050 3054 3057 3060 3061 3062 3064 3066 3068 3071 3074 3076 3078 3080 3082 3084 3085 3086 3087 3089 3091 3093 3095 3095 3096 3096 3097 3097 3097 3097 3097 3098 3098 3098 3098 3099 3099 3099 3099 3099 3099 3099 3099 3099 3098 3098 3098 3096 3097
2974 2978 2981 2983 2985 2987 2989 2990 2992 2992 2993 2993 2991 2990 2992 2995 2997 2999 3002 3004 3006 3008 3010 3012 3014 3015 3016 3017 3018 3021 3024 3026 3029 3032 3034 3040 3047 3050 3053 3056 3057 3059 3061 3062 3064 3067 3069 3071 3073 3075 3077 3079 3081 3082 3083 3084 3086 3088 3090 3091 3091 3091 3092 3093 3093 3093 3094 3094 3095 3095 3095 3095 3095 3095 3095 3095 3094 3094 3094 3094 3094 3094 3093 3092 3093
2971 2974 2976 2979 2980 2983 2985 2986 2988 2989 2990 2990 2988 2987 2988 2990 2991 2994 2997 3000 3001 3003 3005 3006 3009 3011 3012 3014 3016 3020 3022 3023 3027 3030 3032 3036 3042 3046 3048 3051 3052 3054 3057 3059 3060 3063 3065 3067 3069 3071 3073 3075 3077 3078 3078 3079 3081 3083 3084 3085 3085 3086 3087 3088 3089 3089 3090 3090 3090 3091 3092 3092 3092 3092 3092 3090 3089 3089 3089 3089 3089 3089 3089 3088 3088
2969 2970 2972 2974 2976 2978 2981 2982 2984 2986 2987 2987 2986 2985 2985 2986 2987 2989 2993 2995 2997 2999 3000 3002 3004 3006 3008 3011 3014 3017 3019 3020 3023 3027 3029 3032 3036 3039 3043 3045 3047 3048 3051 3053 3055 3058 3060 3063 3065 3067 3069 3071 3072 3073 3073 3075 3077 3078 3079 3080 3080 3082 3082 3083 3084 3085 3085 3086 3086 3088 3089 3089 3088 3089 3088 3085 3084 3084 3084 3084 3084 3084 3084 3084 3084
2968 2968 2969 2971 2973 2975 2977 2979 2981 2982 2983 2984 2984 2983 2983 2984 2984 2985 2987 2989 2992 2995 2996 2997 2999 3002 3005 3008 3011 3014 3016 3017 3020 3023 3026 3028 3030 3032 3035 3039 3041 3043 3045 3047 3049 3051 3054 3058 3060 3062 3065 3066 3067 3068 3069 3071 3072 3073 3074 3075 3076 3077 3078 3079 3080 3080 3081 3082 3082 3083 3085 3085 3084 3084 3083 3081 3080 3080 3079 3079 3079 3079 3079 3079 3079
2967 2967 2968 2969 2970 2972 2974 2975 2976 2978 2979 2981 2981 2982 2982 2982 2983 2982 2982 2984 2988 2990 2992 2994 2996 2998 3001 3005 3007 3010 3013 3015 3017 3019 3021 3023 3024 3026 3029 3032 3033 3033 3035 3039 3042 3045 3048 3051 3054 3056 3058 3060 3062 3064 3066 3067 3067 3068 3069 3071 3072 3073 3073 3075 3076 3076 3076 3077 3077 3078 3080 3080 3079 3079 3079 3078 3077 3076 3074 3074 3075 3074 3074 3074 3074
2966 2966 2966 2967 2967 2968 2970 2971 2972 2974 2976 2977 2979 2980 2980 2980 2981 2981 2980 2982 2985 2986 2987 2989 2992 2995 2997 2999 3002 3006 3009 3012 3014 3016 3018 3019 3020 3023 3026 3027 3025 3025 3027 3032 3036 3038 3041 3044 3047 3049 3052 3054 3056 3058 3061 3063 3063 3063 3064 3065 3066 3067 3068 3070 3071 3071 3071 3071 3071 3073 3075 3075 3074 3074 3075 3074 3072 3071 3069 3069 3070 3070 3069 3068 3069
2965 2965 2964 2964 2965 2965 2966 2967 2969 2971 2972 2974 2975 2977 2977 2978 2978 2979 2979 2980 2982 2984 2984 2986 2988 2990 2993 2994 2997 3000 3004 3007 3009 3011 3013 3015 3017 3020 3023 3024 3024 3024 3027 3030 3033 3035 3034 3035 3037 3039 3041 3045 3048 3052 3055 3057 3057 3058 3058 3058 3059 3060 3062 3065 3065 3065 3066 3066 3066 3067 3068 3069 3069 3069 3069 3069 3068 3067 3064 3064 3066 3066 3063 3063 3064
2965 2964 2963 2962 2962 2963 2963 2964 2965 2967 2969 2971 2972 2973 2974 2975 2976 2977 2977 2978 2979 2981 2983 2984 2985 2986 2988 2990 2992 2995 2998 3001 3004 3005 3007 3010 3013 3016 3018 3019 3020 3022 3024 3027 3030 3032 3032 3032 3033 3033 3034 3037 3039 3043 3046 3048 3050 3052 3052 3050 3050 3052 3056 3060 3060 3059 3060 3060 3060 3061 3061 3063 3064 3063 3063 3064 3064 3063 3060 3059 3060 3060 3059 3058 3059
2964 2962 2962 2961 2960 2960 2960 2960 2961 2963 2965 2967 2968 2970 2971 2973 2974 2975 2976 2976 2977 2979 2981 2983 2984 2984 2984 2985 2988 2990 2993 2996 2999 3000 3001 3005 3009 3012 3013 3014 3015 3017 3020 3022 3024 3026 3028 3029 3030 3032 3034 3035 3035 3035 3037 3040 3043 3045 3044 3041 3042 3047 3052 3053 3053 3052 3052 3052 3055 3056 3056 3056 3057 3057 3058 3059 3059 3058 3056 3055 3054 3055 3054 3053 3054
2962 2961 2960 2959 2958 2958 2957 2957 2958 2959 2961 2963 2965 2966 2968 2970 2972 2973 2974 2974 2975 2976 2978 2980 2981 2982 2981 2980 2983 2987 2990 2993 2995 2996 2998 3001 3006 3008 3009 3009 3011 3012 3014 3017 3019 3021 3023 3024 3026 3028 3029 3030 3031 3029 3031 3035 3037 3037 3037 3038 3039 3043 3046 3046 3045 3043 3043 3045 3049 3050 3050 3051 3052 3052 3053 3054 3054 3053 3052 3050 3049 3049 3049 3048 3048
2962 2960 2959 2958 2957 2955 2955 2954 2955 2956 2957 2958 2960 2962 2964 2966 2968 2970 2971 2972 2973 2974 2975 2977 2979 2980 2979 2978 2981 2984 2987 2989 2991 2992 2994 2997 3000 3003 3004 3005 3007 3009 3010 3013 3016 3019 3021 3021 3020 3020 3022 3024 3026 3025 3026 3030 3032 3030 3032 3035 3036 3037 3039 3040 3037 3035 3035 3039 3041 3042 3044 3046 3046 3046 3048 3048 3048 3048 3046 3045 3045 3045 3044 3044 3043
2962 2959 2957 2956 2954 2953 2952 2952 2952 2952 2953 2954 2955 2957 2959 2961 2963 2965 2968 2969 2970 2972 2973 2975 2977 2979 2979 2979 2981 2982 2984 2986 2987 2989 2991 2993 2995 2998 3000 3001 3004 3005 3005 3008 3011 3015 3017 3015 3012 3012 3015 3017 3019 3019 3020 3024 3027 3027 3029 3032 3033 3033 3033 3033 3032 3031 3031 3033 3034 3034 3036 3039 3039 3040 3042 3043 3042 3042 3040 3041 3041 3041 3040 3040 3039
2961 2958 2955 2953 2951 2950 2949 2949 2949 2949 2949 2950 2951 2952 2954 2956 2958 2960 2963 2965 2967 2969 2970 2972 2975 2977 2977 2978 2979 2980 2980 2982 2984 2985 2987 2989 2990 2993 2995 2997 2999 3000 3000 3001 3004 3007 3010 3009 3008 3009 3011 3012 3013 3015 3016 3019 3022 3025 3027 3029 3029 3029 3028 3027 3028 3029 3028 3028 3029 3029 3031 3033 3034 3035 3036 3036 3035 3034 3034 3035 3035 3035 3035 3034 3034
2960 2957 2954 2951 2948 2946 2945 2945 2945 2945 2945 2945 2946 2946 2948 2949 2951 2954 2956 2959 2962 2964 2966 2968 2971 2973 2975 2975 2976 2977 2977 2978 2981 2983 2984 2986 2988 2989 2991 2993 2995 2996 2996 2998 3000 3002 3004 3005 3004 3005 3007 3009 3011 3014 3016 3018 3020 3022 3024 3025 3025 3024 3024 3024 3024 3024 3023 3024 3024 3024 3026 3028 3029 3029 3030 3029 3028 3027 3028 3029 3029 3029 3028 3027 3027
2959 2956 2953 2950 2947 2944 2941 2940 2940 2941 2941 2941 2940 2940 2941 2942 2943 2946 2950 2953 2956 2959 2961 2963 2965 2968 2971 2972 2972 2973 2974 2976 2978 2980 2982 2983 2985 2987 2988 2989 2990 2992 2993 2994 2996 2998 3000 3001 3000 3001 3004 3007 3008 3011 3013 3015 3016 3016 3017 3018 3018 3018 3018 3018 3018 3017 3017 3018 3019 3019 3021 3022 3022 3023 3023 3023 3023 3022 3023 3024 3023 3022 3023 3022 3019
2959 2955 2952 2948 2945 2942 2939 2938 2937 2937 2936 2936 2936 2935 2935 2935 2937 2939 2942 2946 2949 2952 2955 2957 2959 2962 2965 2967 2968 2969 2972 2974 2975 2977 2979 2980 2982 2983 2984 2985 2986 2986 2987 2989 2991 2993 2996 2997 2998 3000 3002 3004 3006 3008 3009 3011 3011 3011 3010 3010 3010 3010 3010 3010 3009 3008 3009 3011 3013 3014 3015 3016 3016 3017 3018 3018 3018 3018 3018 3018 3017 3017 3018 3018 3015
2959 2955 2951 2948 2944 2940 2938 2937 2936 2934 2934 2932 2931 2931 2930 2929 2930 2932 2935 2939 2942 2945 2948 2951 2954 2957 2960 2962 2964 2967 2970 2971 2973 2975 2976 2977 2979 2980 2981 2982 2982 2982 2983 2985 2987 2989 2991 2993 2995 2996 2998 3000 3002 3004 3006 3008 3009 3009 3007 3006 3006 3006 3007 3006 3004 3003 3005 3007 3009 3009 3010 3010 3011 3012 3012 3013 3013 3013 3013 3012 3011 3010 3011 3011 3009
2959 2956 2952 2948 2944 2940 2938 2936 2935 2934 2932 2929 2927 2926 2925 2924 2924 2925 2928 2931 2935 2938 2942 2945 2948 2951 2954 2957 2960 2963 2966 2968 2970 2972 2973 2975 2977 2978 2978 2978 2978 2979 2980 2982 2984 2986 2988 2989 2990 2992 2994 2995 2997 2998 3001 3004 3005 3005 3005 3005 3005 3006 3006 3005 3003 3002 3003 3004 3005 3005 3005 3006 3006 3007 3007 3007 3008 3008 3008 3007 3005 3004 3003 3002 3001
2960 2956 2953 2949 2945 2941 2938 2936 2935 2933 2931 2927 2924 2923 2922 2921 2921 2921 2923 2925 2928 2932 2937 2940 2943 2946 2949 2952 2955 2958 2961 2964 2967 2969 2971 2972 2974 2975 2976 2976 2976 2977 2978 2980 2981 2983 2985 2986 2987 2988 2990 2991 2992 2994 2996 2999 3000 3001 3001 3001 3002 3002 3002 3001 3000 3000 3000 3000 3000 3001 3001 3001 3001 3002 3002 3001 3002 3002 3002 3001 3000 2999 2998 2996 2996
2960 2956 2953 2949 2946 2942 2939 2937 2935 2933 2930 2927 2924 2923 2922 2921 2921 2921 2922 2923 2926 2929 2933 2937 2940 2942 2945 2948 2951 2954 2957 2960 2963 2965 2967 2969 2970 2971 2973 2974 2975 2976 2977 2978 2979 2980 2982 2984 2984 2985 2986 2987 2989 2990 2992 2994 2996 2996 2997 2997 2997 2998 2998 2998 2997 2997 2997 2997 2996 2996 2996 2996 2996 2996 2996 2996 2996 2996 2996 2995 2994 2993 2992 2991 2990
2960 2957 2954 2950 2947 2944 2940 2937 2935 2933 2930 2928 2925 2924 2923 2923 2923 2923 2924 2924 2926 2928 2931 2935 2938 2939 2941 2944 2947 2950 2953 2957 2959 2961 2963 2964 2966 2967 2969 2971 2972 2974 2975 2976 2977 2977 2979 2980 2981 2982 2982 2983 2984 2986 2988 2990 2990 2990 2991 2992 2993 2994 2994 2994 2994 2993 2992 2991 2991 2990 2990 2990 2990 2990 2990 2990 2990 2990 2990 2990 2989 2988 2987 2986 2985
2961 2959 2956 2953 2950 2946 2943 2939 2937 2934 2931 2929 2927 2925 2924 2923 2923 2924 2925 2925 2927 2929 2930 2932 2935 2936 2938 2941 2943 2946 2949 2952 2955 2957 2959 2961 2962 2963 2965 2967 2969 2970 2971 2972 2973 2974 2975 2975 2976 2978 2978 2979 2980 2981 2983 2984 2984 2984 2985 2986 2987 2988 2989 2988 2988 2987 2986 2985 2985 2984 2984 2984 2983 2983 2983 2983 2983 2983 2983 2983 2982 2982 2981 2979 2979
2962 2960 2958 2956 2953 2950 2946 2943 2940 2937 2934 2931 2929 2927 2926 2925 2925 2925 2926 2926 2927 2929 2930 2931 2932 2934 2936 2938 2940 2942 2944 2947 2950 2952 2955 2957 2958 2960 2961 2963 2964 2966 2967 2968 2969 2970 2971 2972 2972 2973 2974 2975 2976 2976 2977 2978 2979 2979 2980 2980 2981 2982 2982 2981 2981 2980 2979 2979 2978 2977 2977 2977 2977 2976 2976 2976 2976 2975 2975 2975 2975 2975 2974 2973 2972
2963 2961 2960 2958 2955 2952 2949 2946 2944 2941 2938 2935 2932 2930 2928 2927 2927 2927 2927 2928 2928 2928 2929 2929 2930 2932 2934 2935 2937 2940 2941 2943 2946 2948 2950 2952 2954 2956 2957 2959 2960 2962 2963 2963 2964 2965 2966 2967 2967 2968 2968 2969 2969 2970 2971 2972 2972 2973 2973 2974 2974 2974 2974 2974 2974 2973 2973 2972 2971 2971 2971 2971 2970 2970 2970 2969 2969 2968 2967 2967 2966 2966 2966 2966 2965
2965 2963 2961 2959 2956 2954 2951 2948 2946 2944 2941 2939 2936 2934 2932 2931 2930 2929 2929 2929 2929 2929 2929 2929 2930 2931 2932 2934 2936 2939 2940 2942 2943 2945 2947 2948 2950 2952 2953 2955 2956 2957 2958 2959 2960 2960 2961 2962 2962 2962 2962 2962 2963 2963 2964 2965 2965 2966 2966 2966 2967 2967 2966 2966 2966 2966 2965 2965 2964 2964 2964 2964 2964 2964 2963 2963 2962 2961 2960 2959 2958 2958 2958 2958 2958
2966 2964 2962 2960 2958 2955 2953 2950 2948 2946 2944 2942 2940 2938 2936 2934 2933 2932 2931 2931 2931 2930 2930 2930 2931 2931 2932 2934 2936 2938 2939 2941 2942 2943 2944 2944 2946 2947 2948 2950 2951 2952 2953 2954 2954 2955 2955 2956 2956 2956 2956 2956 2956 2957 2957 2958 2958 2958 2958 2958 2959 2959 2958 2958 2958 2958 2958 2958 2957 2957 2957 2957 2957 2957 2956 2956 2955 2954 2953 2952 2951 2950 2950 2950 2950
2966 2965 2963 2961 2959 2957 2955 2953 2951 2949 2947 2945 2943 2941 2939 2938 2936 2935 2934 2933 2932 2932 2931 2931 2931 2932 2932 2934 2935 2936 2938 2939 2940 2941 2941 2941 2942 2943 2944 2945 2946 2947 2948 2949 2949 2950 2950 2950 2950 2951 2951 2951 2951 2951 2951 2951 2951 2951 2951 2951 2951 2951 2951 2951 2950 2950 2950 2950 2950 2950 2950 2950 2949 2949 2948 2947 2947 2946 2945 2944 2943 2943 2943 2942 2942
2967 2965 2964 2962 2961 2959 2957 2955 2953 2951 2949 2947 2945 2944 2942 2941 2940 2938 2937 2936 2935 2934 2934 2933 2932 2932 2932 2933 2935 2936 2937 2938 2938 2939 2939 2939 2939 2939 2939 2940 2940 2941 2942 2943 2944 2944 2944 2944 2944 2945 2945 2945 2945 2945 2945 2945 2945 2944 2944 2944 2944 2944 2944 2944 2943 2943 2943 2943 2943 2942 2942 2941 2941 2940 2939 2938 2938 2937 2936 2935 2935 2934 2934 2934 2933
2967 2966 2965 2963 2962 2960 2959 2957 2955 2953 2951 2949 2948 2946 2945 2943 2942 2941 2940 2939 2938 2937 2937 2936 2935 2934 2934 2935 2936 2937 2938 2937 2937 2936 2936 2935 2935 2936 2936 2936 2937 2937 2937 2938 2938 2939 2939 2939 2939 2939 2939 2939 2939 2939 2939 2939 2939 2939 2938 2938 2937 2937 2937 2937 2936 2936 2936 2935 2935 2934 2934 2933 2933 2932 2931 2930 2929 2928 2927 2926 2926 2925 2925 2925 2925
2968 2967 2965 2964 2963 2962 2960 2958 2957 2955 2953 2951 2950 2948 2947 2945 2944 2943 2942 2941 2940 2940 2939 2939 2938 2937 2937 2937 2937 2937 2938 2937 2936 2936 2935 2934 2934 2935 2935 2935 2935 2935 2935 2935 2935 2935 2936 2936 2936 2936 2936 2935 2935 2935 2935 2935 2935 2934 2934 2933 2933 2932 2932 2931 2931 2930 2930 2929 2928 2928 2927 2926 2925 2924 2923 2922 2921 2921 2919 2919 2918 2918 2918 2917 2917
2969 2967 2966 2965 2964 2963 2961 2960 2958 2957 2955 2954 2952 2951 2949 2948 2946 2945 2944 2943 2942 2941 2941 2940 2939 2939 2939 2938 2938 2938 2938 2937 2936 2936 2935 2935 2935 2935 2935 2935 2935 2935 2935 2935 2935 2934 2934 2934 2934 2934 2934 2933 2933 2933 2932 2932 2932 2931 2931 2930 2930 2929 2929 2928 2927 2926 2925 2925 2924 2923 2922 2921 2920 2919 2917 2916 2915 2914 2913 2913 2912 2911 2911 2911 2910
2969 2968 2967 2966 2965 2964 2963 2961 2960 2959 2957 2956 2955 2953 2952 2950 2949 2948 2946 2945 2944 2943 2943 2942 2941 2941 2940 2940 2939 2939 2938 2937 2937 2936 2936 2935 2935 2935 2935 2935 2935 2935 2935 2935 2935 2934 2934 2934 2934 2933 2933 2932 2932 2931 2931 2930 2929 2929 2928 2928 2927 2927 2926 2925 2924 2923 2922 2921 2920 2919 2917 2916 2915 2914 2912 2911 2910 2909 2908 2907 2906 2906 2905 2904 2904
2970 2969 2968 2967 2966 2965 2964 2963 2962 2960 2959 2958 2956 2955 2954 2953 2951 2950 2949 2948 2947 2946 2945 2944 2943 2943 2942 2941 2941 2940 2939 2938 2937 2936 2936 2935 2935 2935 2935 2934 2935 2935 2935 2935 2935 2935 2934 2934 2934 2933 2932 2932 2931 2930 2930 2929 2928 2927 2927 2926 2925 2925 2924 2923 2922 2921 2920 2919 2917 2916 2914 2913 2911 2910 2908 2907 2906 2905 2903 2902 2901 2900 2899 2898 2897
2970 2969 2969 2968 2967 2966 2965 2964 2963 2962 2960 2959 2958 2957 2955 2954 2953 2952 2951 2950 2949 2948 2947 2946 2945 2944 2944 2943 2942 2941 2940 2939 2938 2937 2936 2936 2935 2935 2935 2934 2934 2934 2934 2934 2934 2934 2934 2933 2933 2932 2932 2931 2931 2930 2929 2928 2927 2926 2926 2925 2924 2923 2922 2921 2921 2920 2918 2917 2915 2914 2912 2910 2908 2907 2905 2903 2902 2901 2900 2899 2897 2896 2894 2893 2892
2971 2970 2969 2968 2967 2966 2965 2964 2963 2962 2961 2960 2959 2958 2957 2956 2955 2954 2952 2951 2950 2949 2948 2947 2946 2945 2944 2943 2943 2942 2941 2940 2939 2938 2937 2937 2936 2935 2935 2935 2935 2935 2934 2934 2934 2933 2933 2933 2932 2931 2931 2930 2929 2929 2928 2927 2926 2925 2924 2923 2922 2921 2920 2919 2918 2917 2916 2915 2913 2912 2910 2908 2906 2904 2903 2901 2900 2899 2897 2896 2894 2893 2891 2889 2888
2971 2970 2969 2968 2968 2967 2966 2965 2964 2963 2962 2961 2960 2959 2958 2957 2956 2955 2954 2953 2952 2950 2949 2948 2947 2946 2945 2944 2943 2942 2941 2940 2939 2939 2938 2937 2937 2936 2936 2935 2935 2935 2934 2934 2933 2933 2932 2932 2931 2930 2930 2929 2928 2927 2926 2925 2924 2923 2922 2921 2920 2919 2918 2917 2916 2915 2913 2912 2911 2909 2907 2906 2904 2902 2901 2899 2898 2896 2895 2893 2891 2890 2888 2887 2885
2971 2970 2970 2969 2968 2967 2966 2965 2964 2963 2962 2961 2960 2960 2959 2958 2957 2956 2955 2954 2953 2951 2950 2949 2948 2947 2946 2945 2944 2943 2942 2941 2940 2939 2939 2938 2937 2937 2936 2936 2935 2935 2934 2933 2933 2932 2931 2931 2930 2929 2928 2927 2926 2925 2924 2923 2922 2921 2920 2919 2917 2916 2915 2914 2913 2912 2910 2909 2908 2906 2905 2903 2902 2900 2899 2897 2896 2894 2893 2891 2890 2888 2887 2885 2884
2971 2970 2970 2969 2968 2967 2966 2965 2964 2963 2962 2961 2960 2960 2959 2958 2957 2956 2955 2954 2953 2952 2951 2950 2949 2948 2947 2946 2945 2944 2943 2942 2941 2940 2939 2939 2938 2937 2936 2936 2935 2934 2934 2933 2932 2931 2930 2929 2928 2927 2926 2925 2924 2923 2922 2921 2920 2919 2917 2916 2915 2914 2912 2911 2910 2909 2907 2906 2904 2903 2902 2900 2899 2898 2896 2895 2894 2892 2891 2890 2888 2887 2885 2884 2882
2970 2970 2969 2968 2968 2967 2966 2965 2964 2963 2962 2961 2960 2959 2959 2958 2957 2956 2955 2954 2953 2952 2951 2950 2949 2948 2947 2946 2945 2944 2943 2942 2941 2941 2940 2939 2938 2937 2936 2935 2934 2934 2933 2932 2931 2930 2929 2928 2927 2926 2925 2924 2922 2921 2920 2919 2918 2916 2915 2914 2913 2911 2910 2908 2907 2905 2904 2903 2902 2900 2899 2897 2896 2895 2894 2893 2891 2890 2889 2888 2887 2885 2884 2883 2881
2969 2969 2968 2968 2967 2966 2966 2965 2964 2963 2962 2961 2960 2959 2958 2958 2957 2956 2955 2954 2953 2952 2951 2950 2949 2948 2947 2946 2945 2944 2943 2942 2941 2940 2939 2938 2937 2937 2936 2935 2934 2933 2932 2931 2930 2929 2928 2927 2925 2924 2923 2922 2920 2919 2918 2916 2915 2914 2913 2911 2910 2908 2907 2905 2904 2902 2901 2900 2899 2897 2896 2895 2894 2892 2891 2890 2889 2888 2887 2886 2884 2883 2882 2881 2880